Regional Weather Roundup
Issued by NWS Northern Indiana

Home | Current Version | Previous Version | Graphics & Text | Print | Product List | Glossary On
Versions: 1 2 3 4 5 6 7 8 9 10 11 12 13 14 15 16 17 18 19 20 21 22 23 24 25 26 27 28 29 30 31 32 33 34 35 36 37 38 39 40 41 42 43 44 45 46 47 48 49 50
000
ASUS43 KIWX 041810
RWRIWX

KIWX WEATHER ROUNDUP
NATIONAL WEATHER SERVICE NORTHERN INDIANA
200 PM EDT SAT JUL 04 2015

NOTE: "FAIR" INDICATES FEW OR NO CLOUDS BELOW 12,000 FEET WITH NO
SIGNIFICANT WEATHER AND/OR OBSTRUCTIONS TO VISIBILITY.

* THESE STATIONS ARE NOT UNDER NWS QUALITY CONTROL. THEY ALSO MAY NOT
  REPORT WEATHER SUCH AS PRECIPITATION OR FOG.

INZ001>027-041900-
NORTHERN INDIANA

CITY           SKY/WX    TMP DP  RH WIND       PRES   REMARKS
GARY*          MOSUNNY  N/A N/A N/A NE9       30.02S
VALPARAISO     PTSUNNY   77  59  53 MISG      30.03S
6HR MIN TEMP:  59; 6HR MAX TEMP:  78;

MICHIGAN CITY* SUNNY     77  55  47 N6        30.02S
LAPORTE*       SUNNY     78  57  49 CALM      30.03S
6HR MIN TEMP:  60; 6HR MAX TEMP:  78;

KNOX*          SUNNY     77  55  47 NW3       30.02R
SOUTH BEND     SUNNY     77  57  50 W5        30.02F
6HR MIN TEMP:  59; 6HR MAX TEMP:  77;

ELKHART*       SUNNY     77  55  47 W5        30.02S
GOSHEN         SUNNY     76  60  57 W7        30.02S
6HR MIN TEMP:  57; 6HR MAX TEMP:  76;

MONTICELLO*    MOSUNNY   76  61  60 CALM      30.02S
6HR MIN TEMP:  58; 6HR MAX TEMP:  76;

LOGANSPORT*    SUNNY     77  52  41 NW3       30.04S
ROCHESTER*     MOSUNNY   79  55  44 CALM      30.03S
WARSAW*          N/A     75  57  53 NW6       30.03S
ANGOLA*          N/A     79  72  78 VRB5      30.02R
FORT WAYNE     CLOUDY    76  57  51 W3        30.03S
6HR MIN TEMP:  61; 6HR MAX TEMP:  78;

HUNTINGTON*    MOSUNNY   76  57  50 SW3       30.02S
6HR MIN TEMP:  60; 6HR MAX TEMP:  77;

PERU/GRISSOM   MOSUNNY   76  58  55 N2        30.02S
6HR MIN TEMP:  60; 6HR MAX TEMP:  76;

MARION*        SUNNY     74  56  52 CALM      30.04S
6HR MIN TEMP:  52; 6HR MAX TEMP:  78;


$$
INZ028>050-041900-
CENTRAL INDIANA

CITY           SKY/WX    TMP DP  RH WIND       PRES   REMARKS
LAFAYETTE      SUNNY     77  59  53 VRB3      30.02F
6HR MIN TEMP:  59; 6HR MAX TEMP:  77;

KOKOMO*        MOSUNNY   77  57  50 NE3       30.03S
6HR MIN TEMP:  61; 6HR MAX TEMP:  79;

MUNCIE*        MOSUNNY   77  58  51 W6        30.03S
6HR MIN TEMP:  62; 6HR MAX TEMP:  78;

INDIANAPOLIS   MOSUNNY   78  57  48 NW3       30.01F
6HR MIN TEMP:  65; 6HR MAX TEMP:  79;


$$
MIZ043>046-050>051-056>058-064>065-071>073-077>080-041900-
SOUTHWEST LOWER MICHIGAN

CITY           SKY/WX    TMP DP  RH WIND       PRES   REMARKS
BATTLE CREEK   SUNNY     77  54  44 SW6       30.02S
6HR MIN TEMP:  59; 6HR MAX TEMP:  77;

BENTON HARBOR  SUNNY     75  57  53 NW8       30.02R
6HR MIN TEMP:  55; 6HR MAX TEMP:  76;

COLDWATER*     SUNNY     75  55  50 CALM      30.02R
6HR MIN TEMP:  57; 6HR MAX TEMP:  76;

HILLSDALE*     SUNNY     76  52  43 CALM      30.02S
HOLLAND        SUNNY     76  58  53 SW9       30.02R
6HR MIN TEMP:  57; 6HR MAX TEMP:  77;

GRAND RAPIDS   CLOUDY    79  55  43 VRB5      30.00S
6HR MIN TEMP:  58; 6HR MAX TEMP:  79;

KALAMAZOO      SUNNY     77  54  44 VRB3      30.01F
6HR MIN TEMP:  59; 6HR MAX TEMP:  78;

STURGIS*       SUNNY     73  54  49 W3        30.02S
THREE RIVERS*  FAIR      77  56  47 SW3       30.02S
6HR MIN TEMP:  58; 6HR MAX TEMP:  77;


$$
OHZ001>008-015>018-024>025-041900-
NORTHWEST OHIO

CITY           SKY/WX    TMP DP  RH WIND       PRES   REMARKS
DEFIANCE       MOSUNNY   77  56  48 S6        30.02R
6HR MIN TEMP:  59; 6HR MAX TEMP:  78;

FINDLAY        SUNNY     77  55  46 NW7       30.01R
6HR MIN TEMP:  57; 6HR MAX TEMP:  77;

TOLEDO EXPRESS SUNNY     77  51  40 VRB5      30.00S
6HR MIN TEMP:  58; 6HR MAX TEMP:  77;

TOLEDO METCALF SUNNY     78  53  41 MISG      30.01S
6HR MIN TEMP:  59; 6HR MAX TEMP:  78;

LIMA           SUNNY     75  55  49 N7        30.02S
6HR MIN TEMP:  59; 6HR MAX TEMP:  75;


$$
AND FOR LAKE MICHIGAN COASTAL AND OPEN LAKE BUOY OBSERVATIONS

STATION/POSITION TEMP    WIND        PRES    VSBY  WAVE
                 AIR SEA DIR/SP/G                  HT/PER
                 (F)     (DEG/KT/KT) (MB)    (MI)  (FT/S)
CALUMET HARBOR    70      50/  8/  9   N/A
MICHIGAN CITY     70     260/  4/  5   N/A
BURNS HARBOR      69     350/  3/  4 1017.3R
SAINT JOSEPH      69     180/  3/  4   N/A
4 MI NW BRIDGMAN  65 65                N/A           0
MICHIGAN CITY     68 66  330/  2/  4   N/A           0

$$
&&


USA.gov is the U.S. government's official web portal to all federal, state and local government web resources and services.